Time,TemperatureF,DewpointF,PressureIn,WindDirection,WindDirectionDegrees,WindSpeedMPH,WindSpeedGustMPH,Humidity,HourlyPrecipIn,Conditions,Clouds,dailyrainin,SoftwareType,DateUTC
2013-08-02 00:05:00,80.9,61.1,29.91,NNW,348,3.0,6.0,51,0.00,,,0.00,Wunderground v.1.15,2013-08-01 21:05:00,
2013-08-02 00:11:00,80.8,61.0,29.91,NNW,348,4.0,4.0,51,0.00,,,0.00,Wunderground v.1.15,2013-08-01 21:11:00,
2013-08-02 00:20:00,80.7,60.9,29.90,North,355,5.0,5.0,51,0.00,,,0.00,Wunderground v.1.15,2013-08-01 21:20:00,
2013-08-02 00:31:00,80.6,60.8,29.90,North,360,3.0,4.0,51,0.00,,,0.00,Wunderground v.1.15,2013-08-01 21:31:00,
2013-08-02 00:40:00,80.5,61.3,29.90,North,9,4.0,4.0,52,0.00,,,0.00,Wunderground v.1.15,2013-08-01 21:40:00,
2013-08-02 00:45:00,80.4,61.2,29.90,NNW,344,5.0,5.0,52,0.00,,,0.00,Wunderground v.1.15,2013-08-01 21:45:00,
2013-08-02 00:56:00,80.3,61.1,29.90,North,355,3.0,5.0,52,0.00,,,0.00,Wunderground v.1.15,2013-08-01 21:56:00,
2013-08-02 01:01:00,80.3,61.1,29.90,NNW,340,4.0,4.0,52,0.00,,,0.00,Wunderground v.1.15,2013-08-01 22:01:00,
2013-08-02 01:06:00,80.2,61.0,29.90,NNW,343,5.0,5.0,52,0.00,,,0.00,Wunderground v.1.15,2013-08-01 22:06:00,
2013-08-02 01:11:00,80.2,61.0,29.90,North,349,4.0,4.0,52,0.00,,,0.00,Wunderground v.1.15,2013-08-01 22:11:00,
2013-08-02 01:20:00,80.2,61.0,29.90,North,5,3.0,5.0,52,0.00,,,0.00,Wunderground v.1.15,2013-08-01 22:20:00,
2013-08-02 01:30:00,80.2,61.0,29.91,North,5,3.0,3.0,52,0.00,,,0.00,Wunderground v.1.15,2013-08-01 22:30:00,
2013-08-02 01:41:00,80.3,61.1,29.90,North,5,2.0,2.0,52,0.00,,,0.00,Wunderground v.1.15,2013-08-01 22:41:00,
2013-08-02 01:51:00,80.3,61.1,29.90,WNW,296,1.0,2.0,52,0.00,,,0.00,Wunderground v.1.15,2013-08-01 22:51:00,
2013-08-02 02:00:00,80.3,61.1,29.90,NW,311,2.0,3.0,52,0.00,,,0.00,Wunderground v.1.15,2013-08-01 23:00:00,
2013-08-02 02:10:00,80.2,61.0,29.90,NW,313,1.0,1.0,52,0.00,,,0.00,Wunderground v.1.15,2013-08-01 23:10:00,
2013-08-02 02:25:00,80.1,61.4,29.90,NW,317,2.0,3.0,53,0.00,,,0.00,Wunderground v.1.15,2013-08-01 23:25:00,
2013-08-02 02:35:00,80.1,61.4,29.90,WNW,290,2.0,2.0,53,0.00,,,0.00,Wunderground v.1.15,2013-08-01 23:35:00,
2013-08-02 02:41:00,80.2,61.5,29.90,WNW,291,2.0,4.0,53,0.00,,,0.00,Wunderground v.1.15,2013-08-01 23:41:00,
2013-08-02 02:51:00,80.2,61.5,29.89,North,350,3.0,4.0,53,0.00,,,0.00,Wunderground v.1.15,2013-08-01 23:51:00,
2013-08-02 02:56:00,80.2,61.5,29.89,North,355,3.0,4.0,53,0.00,,,0.00,Wunderground v.1.15,2013-08-01 23:56:00,
2013-08-02 03:05:00,80.1,61.4,29.89,NW,319,3.0,6.0,53,0.00,,,0.00,Wunderground v.1.15,2013-08-02 00:05:00,
2013-08-02 03:16:00,80.0,61.3,29.89,NNW,331,4.0,4.0,53,0.00,,,0.00,Wunderground v.1.15,2013-08-02 00:16:00,
2013-08-02 03:25:00,79.9,61.8,29.89,NNW,337,3.0,4.0,54,0.00,,,0.00,Wunderground v.1.15,2013-08-02 00:25:00,
2013-08-02 03:35:00,79.9,61.8,29.89,North,355,3.0,7.0,54,0.00,,,0.00,Wunderground v.1.15,2013-08-02 00:35:00,
2013-08-02 03:40:00,79.8,61.7,29.88,NNW,334,3.0,7.0,54,0.00,,,0.00,Wunderground v.1.15,2013-08-02 00:40:00,
2013-08-02 03:51:00,79.8,61.7,29.89,NNW,338,3.0,3.0,54,0.00,,,0.00,Wunderground v.1.15,2013-08-02 00:51:00,
2013-08-02 04:00:00,79.8,61.7,29.88,NNW,334,4.0,4.0,54,0.00,,,0.00,Wunderground v.1.15,2013-08-02 01:00:00,
2013-08-02 04:06:00,79.7,62.1,29.88,North,355,5.0,5.0,55,0.00,,,0.00,Wunderground v.1.15,2013-08-02 01:06:00,
2013-08-02 04:15:00,79.7,62.1,29.88,NNW,340,4.0,6.0,55,0.00,,,0.00,Wunderground v.1.15,2013-08-02 01:15:00,
2013-08-02 04:25:00,79.6,62.0,29.88,North,355,5.0,6.0,55,0.00,,,0.00,Wunderground v.1.15,2013-08-02 01:25:00,
2013-08-02 04:36:00,79.5,61.9,29.88,North,360,6.0,8.0,55,0.00,,,0.00,Wunderground v.1.15,2013-08-02 01:36:00,
2013-08-02 04:45:00,79.4,62.3,29.89,North,9,6.0,11.0,56,0.00,,,0.00,Wunderground v.1.15,2013-08-02 01:45:00,
2013-08-02 04:50:00,79.4,62.3,29.88,North,355,6.0,6.0,56,0.00,,,0.00,Wunderground v.1.15,2013-08-02 01:50:00,
2013-08-02 05:00:00,79.3,62.2,29.89,NNW,327,5.0,5.0,56,0.00,,,0.00,Wunderground v.1.15,2013-08-02 02:00:00,
2013-08-02 05:05:00,79.2,62.1,29.88,North,9,5.0,7.0,56,0.00,,,0.00,Wunderground v.1.15,2013-08-02 02:05:00,
2013-08-02 05:15:00,79.0,62.5,29.89,North,5,7.0,15.0,57,0.00,,,0.00,Wunderground v.1.15,2013-08-02 02:15:00,
2013-08-02 05:21:00,78.9,62.9,29.89,North,350,7.0,11.0,58,0.00,,,0.00,Wunderground v.1.15,2013-08-02 02:21:00,
2013-08-02 05:30:00,78.7,62.7,29.89,NNW,345,6.0,7.0,58,0.00,,,0.00,Wunderground v.1.15,2013-08-02 02:30:00,
2013-08-02 05:35:00,78.7,62.7,29.89,NNW,344,6.0,7.0,58,0.00,,,0.00,Wunderground v.1.15,2013-08-02 02:35:00,
2013-08-02 05:46:00,78.6,63.1,29.89,NNE,20,5.0,8.0,59,0.00,,,0.00,Wunderground v.1.15,2013-08-02 02:46:00,
2013-08-02 05:55:00,78.5,63.0,29.89,North,350,6.0,6.0,59,0.00,,,0.00,Wunderground v.1.15,2013-08-02 02:55:00,
2013-08-02 06:06:00,78.4,62.9,29.89,NNW,342,7.0,7.0,59,0.00,,,0.00,Wunderground v.1.15,2013-08-02 03:06:00,
2013-08-02 06:11:00,78.4,62.9,29.89,NW,311,6.0,6.0,59,0.00,,,0.00,Wunderground v.1.15,2013-08-02 03:11:00,
2013-08-02 06:20:00,78.3,62.8,29.89,North,355,6.0,6.0,59,0.00,,,0.00,Wunderground v.1.15,2013-08-02 03:20:00,
2013-08-02 06:30:00,78.3,62.8,29.89,NNE,13,3.0,6.0,59,0.00,,,0.00,Wunderground v.1.15,2013-08-02 03:30:00,
2013-08-02 06:40:00,78.1,62.6,29.89,NNW,337,5.0,5.0,59,0.00,,,0.00,Wunderground v.1.15,2013-08-02 03:40:00,
2013-08-02 06:45:00,78.1,62.6,29.89,North,355,5.0,6.0,59,0.00,,,0.00,Wunderground v.1.15,2013-08-02 03:45:00,
2013-08-02 06:55:00,78.1,62.6,29.89,NNW,347,6.0,9.0,59,0.00,,,0.00,Wunderground v.1.15,2013-08-02 03:55:00,
2013-08-02 07:01:00,78.1,62.6,29.89,NNE,20,4.0,4.0,59,0.00,,,0.00,Wunderground v.1.15,2013-08-02 04:01:00,
2013-08-02 07:10:00,78.3,62.3,29.89,NNW,346,4.0,4.0,58,0.00,,,0.00,Wunderground v.1.15,2013-08-02 04:10:00,
2013-08-02 07:15:00,78.4,62.4,29.89,NNE,22,5.0,6.0,58,0.00,,,0.00,Wunderground v.1.15,2013-08-02 04:15:00,
2013-08-02 07:20:00,78.5,62.5,29.90,North,351,5.0,6.0,58,0.00,,,0.00,Wunderground v.1.15,2013-08-02 04:20:00,
2013-08-02 07:25:00,78.7,62.2,29.90,NNW,338,5.0,6.0,57,0.00,,,0.00,Wunderground v.1.15,2013-08-02 04:25:00,
2013-08-02 07:30:00,78.7,62.2,29.90,NNW,346,5.0,5.0,57,0.00,,,0.00,Wunderground v.1.15,2013-08-02 04:30:00,
2013-08-02 07:40:00,79.0,62.5,29.90,North,355,4.0,5.0,57,0.00,,,0.00,Wunderground v.1.15,2013-08-02 04:40:00,
2013-08-02 07:50:00,79.3,62.7,29.90,NW,315,5.0,9.0,57,0.00,,,0.00,Wunderground v.1.15,2013-08-02 04:50:00,
2013-08-02 07:55:00,79.5,62.9,29.91,NNW,342,4.0,4.0,57,0.00,,,0.00,Wunderground v.1.15,2013-08-02 04:55:00,
2013-08-02 08:05:00,79.9,63.3,29.91,WNW,297,5.0,6.0,57,0.00,,,0.00,Wunderground v.1.15,2013-08-02 05:05:00,
2013-08-02 08:10:00,80.1,63.0,29.91,NNW,333,5.0,13.0,56,0.00,,,0.00,Wunderground v.1.15,2013-08-02 05:10:00,
2013-08-02 08:20:00,80.3,63.2,29.91,NE,36,7.0,7.0,56,0.00,,,0.00,Wunderground v.1.15,2013-08-02 05:20:00,
2013-08-02 08:30:00,80.5,63.4,29.92,WNW,291,8.0,8.0,56,0.00,,,0.00,Wunderground v.1.15,2013-08-02 05:30:00,
2013-08-02 08:35:00,80.6,62.9,29.92,NNW,344,9.0,9.0,55,0.00,,,0.00,Wunderground v.1.15,2013-08-02 05:35:00,
2013-08-02 08:45:00,80.9,63.2,29.92,NNW,338,9.0,9.0,55,0.00,,,0.00,Wunderground v.1.15,2013-08-02 05:45:00,
2013-08-02 08:50:00,81.1,63.4,29.92,North,355,8.0,13.0,55,0.00,,,0.00,Wunderground v.1.15,2013-08-02 05:50:00,
2013-08-02 08:55:00,81.2,63.5,29.92,NNE,14,10.0,13.0,55,0.00,,,0.00,Wunderground v.1.15,2013-08-02 05:55:00,
2013-08-02 09:05:00,81.6,63.9,29.92,West,281,8.0,10.0,55,0.00,,,0.00,Wunderground v.1.15,2013-08-02 06:05:00,
2013-08-02 09:20:00,82.1,63.8,29.92,NNW,339,8.0,12.0,54,0.00,,,0.00,Wunderground v.1.15,2013-08-02 06:20:00,
2013-08-02 09:30:00,82.4,63.5,29.92,NW,307,7.0,7.0,53,0.00,,,0.00,Wunderground v.1.15,2013-08-02 06:30:00,
2013-08-02 09:45:00,82.8,63.4,29.92,NNE,27,7.0,13.0,52,0.00,,,0.00,Wunderground v.1.15,2013-08-02 06:45:00,
2013-08-02 09:55:00,82.2,63.4,29.92,NW,325,9.0,9.0,53,0.00,,,0.00,Wunderground v.1.15,2013-08-02 06:55:00,
2013-08-02 10:05:00,82.4,63.0,29.92,North,349,8.0,14.0,52,0.00,,,0.00,Wunderground v.1.15,2013-08-02 07:05:00,
2013-08-02 10:10:00,82.5,62.5,29.93,North,10,11.0,13.0,51,0.00,,,0.00,Wunderground v.1.15,2013-08-02 07:10:00,
2013-08-02 10:20:00,83.0,62.4,29.92,North,355,11.0,13.0,50,0.00,,,0.00,Wunderground v.1.15,2013-08-02 07:20:00,
2013-08-02 10:30:00,83.7,63.1,29.92,North,360,11.0,11.0,50,0.00,,,0.00,Wunderground v.1.15,2013-08-02 07:30:00,
2013-08-02 10:40:00,83.8,63.2,29.92,NW,318,10.0,16.0,50,0.00,,,0.00,Wunderground v.1.15,2013-08-02 07:40:00,
2013-08-02 10:50:00,84.2,63.5,29.92,NNE,26,10.0,11.0,50,0.00,,,0.00,Wunderground v.1.15,2013-08-02 07:50:00,
2013-08-02 11:00:00,85.0,63.7,29.92,WNW,296,8.0,8.0,49,0.00,,,0.00,Wunderground v.1.15,2013-08-02 08:00:00,
2013-08-02 11:20:00,85.4,62.9,29.92,North,350,12.0,17.0,47,0.00,,,0.00,Wunderground v.1.15,2013-08-02 08:20:00,
2013-08-02 11:30:00,85.7,63.8,29.92,NW,321,10.0,15.0,48,0.00,,,0.00,Wunderground v.1.15,2013-08-02 08:30:00,
2013-08-02 11:40:00,85.8,63.8,29.92,NNW,334,12.0,12.0,48,0.00,,,0.00,Wunderground v.1.15,2013-08-02 08:40:00,
2013-08-02 11:50:00,85.8,63.8,29.92,NNW,341,11.0,11.0,48,0.00,,,0.00,Wunderground v.1.15,2013-08-02 08:50:00,
2013-08-02 12:00:00,85.5,63.0,29.92,NE,40,12.0,17.0,47,0.00,,,0.00,Wunderground v.1.15,2013-08-02 09:00:00,
2013-08-02 12:30:00,85.8,62.6,29.92,North,9,14.0,14.0,46,0.00,,,0.00,Wunderground v.1.15,2013-08-02 09:30:00,
2013-08-02 12:40:00,85.6,63.1,29.92,NNE,15,13.0,14.0,47,0.00,,,0.00,Wunderground v.1.15,2013-08-02 09:40:00,
2013-08-02 12:45:00,86.5,63.3,29.92,North,5,11.0,11.0,46,0.00,,,0.00,Wunderground v.1.15,2013-08-02 09:45:00,
2013-08-02 12:55:00,87.0,63.7,29.92,NW,326,12.0,13.0,46,0.00,,,0.00,Wunderground v.1.15,2013-08-02 09:55:00,
2013-08-02 13:00:00,87.7,63.7,29.92,North,349,9.0,9.0,45,0.00,,,0.00,Wunderground v.1.15,2013-08-02 10:00:00,
2013-08-02 13:10:00,87.8,63.8,29.92,NW,310,10.0,10.0,45,0.00,,,0.00,Wunderground v.1.15,2013-08-02 10:10:00,
2013-08-02 13:15:00,88.1,63.4,29.92,NNE,13,11.0,14.0,44,0.00,,,0.00,Wunderground v.1.15,2013-08-02 10:15:00,
2013-08-02 13:25:00,88.3,64.3,29.92,North,10,9.0,15.0,45,0.00,,,0.00,Wunderground v.1.15,2013-08-02 10:25:00,
2013-08-02 13:35:00,86.6,62.7,29.91,NNE,26,13.0,23.0,45,0.00,,,0.00,Wunderground v.1.15,2013-08-02 10:35:00,
2013-08-02 13:55:00,87.9,63.3,29.91,NE,37,10.0,12.0,44,0.00,,,0.00,Wunderground v.1.15,2013-08-02 10:55:00,
2013-08-02 14:20:00,88.1,62.8,29.91,NW,317,12.0,12.0,43,0.00,,,0.00,Wunderground v.1.15,2013-08-02 11:20:00,
2013-08-02 14:25:00,88.4,63.1,29.92,NNW,331,11.0,12.0,43,0.00,,,0.00,Wunderground v.1.15,2013-08-02 11:25:00,
2013-08-02 14:35:00,88.8,62.7,29.91,NNW,329,11.0,13.0,42,0.00,,,0.00,Wunderground v.1.15,2013-08-02 11:35:00,
2013-08-02 14:50:00,89.1,61.6,29.91,NNW,330,11.0,11.0,40,0.00,,,0.00,Wunderground v.1.15,2013-08-02 11:50:00,
2013-08-02 14:55:00,89.8,61.5,29.91,NNE,19,10.0,12.0,39,0.00,,,0.00,Wunderground v.1.15,2013-08-02 11:55:00,
2013-08-02 15:05:00,89.9,60.9,29.91,NNW,339,10.0,10.0,38,0.00,,,0.00,Wunderground v.1.15,2013-08-02 12:05:00,
2013-08-02 15:15:00,90.0,60.2,29.91,NNE,13,8.0,22.0,37,0.00,,,0.00,Wunderground v.1.15,2013-08-02 12:15:00,
2013-08-02 15:25:00,88.6,59.7,29.90,WNW,286,13.0,13.0,38,0.00,,,0.00,Wunderground v.1.15,2013-08-02 12:25:00,
2013-08-02 15:30:00,88.7,61.3,29.90,NW,311,12.0,13.0,40,0.00,,,0.00,Wunderground v.1.15,2013-08-02 12:30:00,
2013-08-02 15:40:00,90.0,61.0,29.90,North,360,9.0,10.0,38,0.00,,,0.00,Wunderground v.1.15,2013-08-02 12:40:00,
2013-08-02 15:50:00,89.8,60.8,29.90,NW,320,11.0,11.0,38,0.00,,,0.00,Wunderground v.1.15,2013-08-02 12:50:00,
2013-08-02 16:05:00,90.4,60.6,29.91,NW,324,10.0,10.0,37,0.00,,,0.00,Wunderground v.1.15,2013-08-02 13:05:00,
2013-08-02 16:15:00,89.7,60.7,29.90,NNW,338,10.0,10.0,38,0.00,,,0.00,Wunderground v.1.15,2013-08-02 13:15:00,
2013-08-02 16:25:00,88.8,59.9,29.90,NNW,335,11.0,11.0,38,0.00,,,0.00,Wunderground v.1.15,2013-08-02 13:25:00,
2013-08-02 16:45:00,90.1,61.1,29.90,NNW,329,8.0,14.0,38,0.00,,,0.00,Wunderground v.1.15,2013-08-02 13:45:00,
2013-08-02 16:55:00,90.1,61.1,29.89,North,360,8.0,9.0,38,0.00,,,0.00,Wunderground v.1.15,2013-08-02 13:55:00,
2013-08-02 17:05:00,89.9,60.9,29.90,North,360,8.0,8.0,38,0.00,,,0.00,Wunderground v.1.15,2013-08-02 14:05:00,
2013-08-02 17:25:00,89.6,60.6,29.90,NNW,340,9.0,9.0,38,0.00,,,0.00,Wunderground v.1.15,2013-08-02 14:25:00,
2013-08-02 17:35:00,89.4,60.5,29.90,NNE,16,8.0,10.0,38,0.00,,,0.00,Wunderground v.1.15,2013-08-02 14:35:00,
2013-08-02 17:45:00,89.2,59.5,29.90,North,9,9.0,16.0,37,0.00,,,0.00,Wunderground v.1.15,2013-08-02 14:45:00,
2013-08-02 18:05:00,88.6,59.7,29.90,North,5,9.0,11.0,38,0.00,,,0.00,Wunderground v.1.15,2013-08-02 15:05:00,
2013-08-02 18:40:00,87.2,58.5,29.90,North,10,10.0,10.0,38,0.00,,,0.00,Wunderground v.1.15,2013-08-02 15:40:00,
2013-08-02 18:50:00,87.1,58.4,29.90,North,355,10.0,10.0,38,0.00,,,0.00,Wunderground v.1.15,2013-08-02 15:50:00,
2013-08-02 19:00:00,87.0,58.3,29.90,WNW,298,9.0,16.0,38,0.00,,,0.00,Wunderground v.1.15,2013-08-02 16:00:00,
2013-08-02 19:05:00,86.8,57.4,29.90,NNE,15,9.0,17.0,37,0.00,,,0.00,Wunderground v.1.15,2013-08-02 16:05:00,
2013-08-02 19:10:00,86.5,57.1,29.90,NNE,14,11.0,12.0,37,0.00,,,0.00,Wunderground v.1.15,2013-08-02 16:10:00,
2013-08-02 19:20:00,86.1,56.8,29.90,NNE,15,10.0,11.0,37,0.00,,,0.00,Wunderground v.1.15,2013-08-02 16:20:00,
2013-08-02 19:25:00,85.9,57.3,29.90,North,360,10.0,11.0,38,0.00,,,0.00,Wunderground v.1.15,2013-08-02 16:25:00,
2013-08-02 19:40:00,85.4,57.6,29.91,North,11,10.0,10.0,39,0.00,,,0.00,Wunderground v.1.15,2013-08-02 16:40:00,
2013-08-02 19:45:00,85.2,57.4,29.91,North,350,11.0,12.0,39,0.00,,,0.00,Wunderground v.1.15,2013-08-02 16:45:00,
2013-08-02 19:55:00,85.0,58.0,29.91,NNE,15,10.0,21.0,40,0.00,,,0.00,Wunderground v.1.15,2013-08-02 16:55:00,
2013-08-02 20:10:00,84.8,57.8,29.91,North,360,9.0,10.0,40,0.00,,,0.00,Wunderground v.1.15,2013-08-02 17:10:00,
2013-08-02 20:20:00,84.5,57.5,29.90,NNW,336,9.0,12.0,40,0.00,,,0.00,Wunderground v.1.15,2013-08-02 17:20:00,
2013-08-02 20:30:00,84.4,58.1,29.90,North,349,7.0,20.0,41,0.00,,,0.00,Wunderground v.1.15,2013-08-02 17:30:00,
2013-08-02 20:40:00,84.1,58.5,29.91,NNW,340,10.0,14.0,42,0.00,,,0.00,Wunderground v.1.15,2013-08-02 17:40:00,
2013-08-02 20:45:00,84.0,58.4,29.90,NNW,348,9.0,14.0,42,0.00,,,0.00,Wunderground v.1.15,2013-08-02 17:45:00,
2013-08-02 21:00:00,83.8,58.9,29.90,NNW,340,6.0,9.0,43,0.00,,,0.00,Wunderground v.1.15,2013-08-02 18:00:00,
2013-08-02 21:15:00,83.6,59.4,29.91,WNW,303,6.0,6.0,44,0.00,,,0.00,Wunderground v.1.15,2013-08-02 18:15:00,
2013-08-02 21:20:00,83.5,59.3,29.90,North,11,4.0,10.0,44,0.00,,,0.00,Wunderground v.1.15,2013-08-02 18:20:00,
2013-08-02 21:30:00,83.3,59.1,29.91,NNW,338,5.0,5.0,44,0.00,,,0.00,Wunderground v.1.15,2013-08-02 18:30:00,
2013-08-02 21:40:00,83.2,59.0,29.91,North,350,3.0,3.0,44,0.00,,,0.00,Wunderground v.1.15,2013-08-02 18:40:00,
2013-08-02 21:50:00,83.1,59.6,29.91,North,355,3.0,3.0,45,0.00,,,0.00,Wunderground v.1.15,2013-08-02 18:50:00,
2013-08-02 22:10:00,82.8,58.7,29.91,NNW,336,4.0,4.0,44,0.00,,,0.00,Wunderground v.1.15,2013-08-02 19:10:00,
2013-08-02 22:20:00,82.7,58.6,29.92,NNW,333,4.0,4.0,44,0.00,,,0.00,Wunderground v.1.15,2013-08-02 19:20:00,
2013-08-02 22:35:00,82.6,59.1,29.91,NNE,13,4.0,4.0,45,0.00,,,0.00,Wunderground v.1.15,2013-08-02 19:35:00,
2013-08-02 22:45:00,82.5,59.0,29.92,North,360,4.0,4.0,45,0.00,,,0.00,Wunderground v.1.15,2013-08-02 19:45:00,
2013-08-02 22:50:00,82.4,58.9,29.92,North,360,3.0,4.0,45,0.00,,,0.00,Wunderground v.1.15,2013-08-02 19:50:00,
2013-08-02 23:00:00,82.4,58.9,29.91,North,360,4.0,4.0,45,0.00,,,0.00,Wunderground v.1.15,2013-08-02 20:00:00,
2013-08-02 23:15:00,82.3,59.4,29.92,NNW,341,3.0,3.0,46,0.00,,,0.00,Wunderground v.1.15,2013-08-02 20:15:00,
2013-08-02 23:25:00,82.2,59.4,29.91,NNW,343,3.0,3.0,46,0.00,,,0.00,Wunderground v.1.15,2013-08-02 20:25:00,
2013-08-02 23:30:00,82.1,59.3,29.91,NNW,344,3.0,3.0,46,0.00,,,0.00,Wunderground v.1.15,2013-08-02 20:30:00,
2013-08-02 23:40:00,82.0,59.8,29.91,NNW,344,2.0,2.0,47,0.00,,,0.00,Wunderground v.1.15,2013-08-02 20:40:00,
2013-08-02 23:45:00,81.9,59.7,29.91,NNW,346,3.0,3.0,47,0.00,,,0.00,Wunderground v.1.15,2013-08-02 20:45:00,
2013-08-02 23:55:00,81.6,60.0,29.91,North,5,3.0,3.0,48,0.00,,,0.00,Wunderground v.1.15,2013-08-02 20:55:00,